Weather History for KAVP - July, 2013

Change the Weather History Date:

Saturday, July 27, 2013

  Actual Average Record
Temperature  
Mean Temperature 71 °F 72 °F  
Max Temperature 85 °F 82 °F 94 °F (1964)
Min Temperature 56 °F 61 °F 47 °F (1977)
Degree Days  
Heating Degree Days 0 0  
Month to date heating degree days 1 0  
Since 1 June heating degree days 22 54  
Since 1 July heating degree days 1 0  
Cooling Degree Days 6 7  
Month to date cooling degree days 314 184  
Year to date cooling degree days 514 338  
Since 1 June cooling degree days 450 301  
Growing Degree Days 20 (Base 50)    
Moisture  
Dew Point 60 °F    
Average Humidity 69    
Maximum Humidity 93    
Minimum Humidity 44    
Precipitation  
Precipitation 0.50 in 0.12 in 2.34 in (1934)
Month to date precipitation 1.69 3.26  
Year to date precipitation 16.87 21.09  
Sea Level Pressure  
Sea Level Pressure 29.99 in    
Wind  
Wind Speed 6 mph (SE)    
Max Wind Speed 14 mph    
Max Gust Speed 22 mph    
Visibility 8 miles    
Events Rain    
T = Trace of Precipitation, MM = Missing Value Source: NWS Daily Summary

Daily Weather History Graph

Daily Weather History Graph

Search for Another Location

Airport or City:

Trip Planner

Search our weather history database for the weather conditions in past years. The results will help you decide how hot, cold, wet, or windy it might be!

Date:

Astronomy

Jul. 27, 2013 Rise Set
Actual Time 5:53 AM EDT 8:24 PM EDT
Civil Twilight 5:21 AM EDT 8:56 PM EDT
Nautical Twilight 4:42 AM EDT 9:35 PM EDT
Astronomical Twilight 3:58 AM EDT 10:19 PM EDT
Moon 11:06 PM EDT 11:35 AM EDT
Length of Visible Light 15h 34m
Length of Day
14h 31m
Waning Gibbous, 71% of the Moon is Illuminated
Jul 27
Waning Gibbous
Jul 29
Last Quarter
Aug 6
New
Aug 14
First Quarter
Aug 20
Full

Hourly Weather History & Observations

Time (EDT) Temp. Heat Index Dew Point Humidity Pressure Visibility Wind Dir Wind Speed Gust Speed Precip Events Conditions
12:54 AM 61.0 °F - 53.1 °F 75% 30.05 in 10.0 mi ESE 5.8 mph - N/A   Clear
1:54 AM 61.0 °F - 53.1 °F 75% 30.04 in 10.0 mi East 6.9 mph - N/A   Clear
2:54 AM 59.0 °F - 52.0 °F 78% 30.04 in 10.0 mi East 8.1 mph - N/A   Clear
3:54 AM 59.0 °F - 52.0 °F 78% 30.02 in 10.0 mi East 6.9 mph - N/A   Clear
4:54 AM 57.0 °F - 52.0 °F 83% 30.02 in 10.0 mi ESE 3.5 mph - N/A   Clear
5:54 AM 55.9 °F - 52.0 °F 87% 30.03 in 10.0 mi Calm Calm - N/A   Clear
6:54 AM 61.0 °F - 55.0 °F 81% 30.03 in 10.0 mi East 4.6 mph - N/A   Clear
7:54 AM 66.0 °F - 55.9 °F 70% 30.03 in 10.0 mi NE 3.5 mph - N/A   Clear
8:54 AM 70.0 °F - 57.0 °F 63% 30.02 in 10.0 mi NE 4.6 mph - N/A   Clear
9:54 AM 77.0 °F - 60.1 °F 56% 30.02 in 10.0 mi SSW 6.9 mph - N/A   Partly Cloudy
10:54 AM 78.1 °F - 61.0 °F 56% 30.02 in 10.0 mi Variable 6.9 mph - N/A   Scattered Clouds
11:54 AM 78.1 °F - 62.1 °F 58% 30.02 in 10.0 mi Variable 4.6 mph - N/A   Mostly Cloudy
12:54 PM 81.0 °F 81.7 °F 61.0 °F 50% 29.99 in 10.0 mi South 10.4 mph 18.4 mph N/A   Partly Cloudy
1:54 PM 82.0 °F 83.0 °F 62.1 °F 51% 29.98 in 10.0 mi SSW 6.9 mph - N/A   Clear
2:54 PM 81.0 °F 81.7 °F 61.0 °F 50% 29.97 in 10.0 mi Variable 6.9 mph - N/A   Clear
3:54 PM 84.0 °F 84.0 °F 60.1 °F 44% 29.94 in 10.0 mi SW 12.7 mph 17.3 mph N/A   Partly Cloudy
4:54 PM 80.1 °F 81.2 °F 62.1 °F 54% 29.92 in 10.0 mi South 9.2 mph 16.1 mph N/A   Mostly Cloudy
5:54 PM 80.1 °F 81.2 °F 62.1 °F 54% 29.91 in 10.0 mi Variable 6.9 mph 18.4 mph N/A   Scattered Clouds
6:54 PM 78.1 °F - 62.1 °F 58% 29.92 in 10.0 mi Variable 6.9 mph - N/A   Overcast
7:54 PM 77.0 °F - 62.1 °F 60% 29.93 in 10.0 mi Calm Calm - N/A   Overcast
8:54 PM 72.0 °F - 64.9 °F 78% 29.96 in 10.0 mi SW 4.6 mph - 0.01 in Rain Light Rain
9:54 PM 69.1 °F - 64.0 °F 84% 29.97 in 5.0 mi SW 8.1 mph - 0.05 in Rain Light Rain
10:15 PM 68.0 °F - 64.4 °F 88% 30.00 in 2.5 mi SSW 3.5 mph - 0.04 in Rain Rain
10:21 PM 66.2 °F - 64.4 °F 94% 30.00 in 1.2 mi Variable 4.6 mph - 0.09 in Rain Heavy Rain
10:38 PM 66.2 °F - 64.4 °F 94% 30.00 in 2.0 mi Calm Calm - 0.38 in Rain Heavy Rain
10:45 PM 66.2 °F - 64.4 °F 94% 29.99 in 3.0 mi Calm Calm - 0.41 in Rain Rain
10:52 PM 66.2 °F - 64.4 °F 94% 29.98 in 4.0 mi Variable 3.5 mph - 0.43 in Rain Rain
10:54 PM 66.9 °F - 64.9 °F 93% 29.96 in 4.0 mi East 3.5 mph - 0.43 in Rain Light Rain
11:54 PM 68.0 °F - 64.9 °F 90% 29.94 in 10.0 mi NE 4.6 mph - 0.01 in   Mostly Cloudy